Terug naar catalogus

STARLINK-2739

ActiefCommunicatieVLEO
NORAD 48639·PAYLOAD·🇺🇸 United States

Gelanceerd May 26, 2021 vanaf Cape Canaveral Space Force Station

Loading…

Volgende Passages (komende 24 uur)

TLE

VersSource: CelesTrak SupGP

Epoch: Sep 15, 2026, 02:09 UTC

1 48639C 21044B   26258.09006944  .00045302  00000+0  14561-2 0  2586
2 48639  53.1600 312.4237 0001312  88.7861 310.1820 15.31694912    11

Volg STARLINK-2739 in realtime met AllMySat

Download on the App Store